Location: Jetmore Oil Field
(38.1181°N, 99.9337°W)
Time: 05:03:28
(UTC+00:00)

STARLINK-2715 - Pass Details

Date: 24 June 2021
Orbit: 348 x 351 km, 53.0° (Epoch: 24 July)

Event Time Altitude Azimuth Distance (km) Brightness Sun altitude
Exits shadow 09:25:42 54° 152° (SSE) 434 2.9 -17.5°
Maximum altitude 09:25:52 55° 135° (SE) 428 3.0 -17.5°
Drops below altitude 10° 09:28:45 10° 56° (ENE) 1,318 6.7 -17.1°
Sets 09:30:47 0° 52° (NE) 2,165 8.3 -16.9°
